Location: Harbor View
(36.2448°N, 86.5797°W)
Time: 08:08:36
(UTC+00:00)

COSMO-SKYMED 1 - Pass Details

Date: 02 March 2021
Orbit: 621 x 623 km, 97.9° (Epoch: 13 April)

Event Time Altitude Azimuth Distance (km) Brightness Sun altitude
Rises 10:30:49 0° 148° (SSE) 2,890 6.3 -21.8°
Reaches altitude 10° 10:33:06 10° 140° (SE) 1,988 5.6 -21.3°
Maximum altitude 10:37:06 38° 72° (ENE) 964 4.1 -20.5°
Drops below altitude 10° 10:41:07 10° 5° (N) 2,001 5.3 -19.7°
Sets 10:43:25 0° 358° (N) 2,911 6.1 -19.2°
